Regional Weather Roundup
Issued by NWS

Home | Current Version | Previous Version | Text Only | Print | Product List | Glossary Off
Versions: 1 2 3 4 5 6 7 8 9 10 11 12 13 14 15 16 17 18 19 20 21 22 23 24 25 26 27 28 29 30 31 32 33 34 35 36 37 38 39 40 41 42 43 44 45 46 47 48 49 50

000
ASUS43 KBIS 040410
RWRND

NORTH DAKOTA REGIONAL WEATHER ROUNDUP
NATIONAL WEATHER SERVICE BISMARCK ND
1100 PM CDT TUE MAY 03 2016

NOTE: "FAIR" INDICATES FEW OR NO CLOUDS BELOW 12,000 FEET WITH NO
SIGNIFICANT WEATHER AND/OR OBSTRUCTIONS TO VISIBILITY.


NDZ001>003-009>011-017-040500-
NORTHWEST NORTH DAKOTA

CITY           SKY/WX    TMP DP  RH WIND       PRES   REMARKS
WILLISTON      CLEAR     63  38  39 NE3       30.05R
MINOT          CLEAR     55  26  32 CALM      30.04R
MINOT AFB      CLEAR     53  29  39 E3        30.03R
$$

NDZ018>021-031>035-040>046-040500-
SOUTHWEST NORTH DAKOTA

CITY           SKY/WX    TMP DP  RH WIND       PRES   REMARKS
BISMARCK       CLEAR     52  30  43 E9        30.04R
DICKINSON      CLEAR     57  37  47 NE6       30.06R
GARRISON         N/A     52  32  46 N3        30.05R
HETTINGER ARPT CLEAR     49  37  63 VRB3      30.09R
$$

NDZ004>008-012>016-024-026-027-054-040500-
NORTHEAST NORTH DAKOTA

CITY           SKY/WX    TMP DP  RH WIND       PRES   REMARKS
GRAND FORKS    CLEAR     47  31  53 N10       30.00R
GRND FRKS AFB  CLEAR     48  31  52 N10       30.01R
DEVILS LAKE    CLEAR     49  31  49 NE10      30.05R
$$

NDZ022-023-025-028>030-036>039-047>053-040500-
SOUTHEAST NORTH DAKOTA

CITY           SKY/WX    TMP DP  RH WIND       PRES   REMARKS
FARGO          CLEAR     54  26  34 N16       29.96R
JAMESTOWN      CLEAR     50  27  40 N14       30.01R
$$





USA.gov is the U.S. government's official web portal to all federal, state and local government web resources and services.